Location: �clusier
(49.9361°N, 2.7869°E)
Time: 17:22:00
(UTC+00:00)

NOAA 13 - Pass Details

Date: 05 February 2022
Orbit: 842 x 857 km, 98.5° (Epoch: 19 May)

Event Time Altitude Azimuth Distance (km) Brightness Sun altitude
Rises 05:52:12 0° 8° (N) 3,431 7.9 -13.8°
Reaches altitude 10° 05:54:46 10° 360° (N) 2,493 7.1 -13.4°
Maximum altitude 05:59:39 33° 298° (WNW) 1,394 5.3 -12.6°
Drops below altitude 10° 06:04:32 10° 235° (SW) 2,487 6.7 -11.8°
Sets 06:07:06 0° 227° (SW) 3,421 7.5 -11.4°
